STARLINK-3617, 51780

Orbit data source: Space-Track

STARLINK-3617, 51780 is a payload satellite owned by SpaceX/Seattle (US) in LEO that was launched on Fri, 25 Feb 2022 UTC via an FALCON 9 launch vehicle from the Air Force Western Test Range (AFWTR). Payload-class satellites include a variety of spacecraft equipped with specific instruments for various scientific and technological missions. These include communications satellites like Starlink; space stations such as the ISS; scientific satellites like the Hubble; Earth observation satellites from companies like Planet Labs, Umbra, and HawkEye 360; GPS; miniature CubeSats for education and research; and military/defense satellites.

Loading next visibility...
Identifier
51780, 2022-017N
Orbit
LEO
Country
Flag of USUS
Related business
Manufacturer
SpaceX/Seattle
Mission
Operational Commercial Communications
Bus & Motor
STARLINK, Unknown motor
Mass
297 kg wet, ~275 kg dry
Launch date (UTC)
2022-02-25 (4 years ago)
Launch vehicle
FALCON 9
Launch site
Air Force Western Test Range (AFWTR)
Object type
Payload
Rocket body
Debris
Shape & HBR
Box + 1 Pan, 10.1 m
Radar Cross Section
13.562 m², Large (>1 m²)

Expand to show TLE details & history
Last TLE update: 2 days ago

TLE from 2 days ago
0 STARLINK-3617
1 51780U 22017N   26171.44754032 -.00001737  00000-0 -91129-4 0  9995
2 51780  53.1579 237.6958 0000896  73.8205 286.2885 15.08814319237934
Epoch: 2026-06-20T10:44Z
TLE epoch observation values (Epoch: 2026-06-20T10:44:27.483Z)
Latitude
-0.00003°
Longitude
167.91924°
Altitude
540.539 km
Speed
7.593 km/s
True Right ascension
15h 50m 46s
True Declination
0° 00' 00"
Sunlit
Object was in full shadow at epoch
Visualization orbit readout
Latitude
Unknown
Longitude
Unknown
Altitude
Unknown
Speed
Unknown
Apparent Right ascension
Unknown
Apparent Declination
Unknown
Sunlit
N/A
Visualization observer readout
Local Sidereal Time
00:39:37
Azimuth
Unknown
Elevation
Unknown
Doppler factor
Unknown
Orbital elements
Apogee altitude
540.696 km
Perigee altitude
539.456 km
Semi-major axis
6,918.213 km
Eccentricity
0.00009
Inclination
53.1579°
RAAN
237.6958°
Arg. of periapsis
73.8205°
True anomaly
286.27864°
Mean anomaly
286.2885°
Eccentric anomaly
286.28357°
Mean motion
3.77183 °/min
Orbital period
95.44 mins
BSTAR
-0.000091129
Loading maneuver chart data...
Computing Atmospheric mass density...
Loading historical data...
Loading historical data...
Loading historical data...
Loading historical data...
Loading historical data...
Loading historical data...
Loading historical data...

Documentation

Showing up to 5 results
|